Find Local Weather

World > North America > United States > Illinois

Hawthorne School, Illinois Regional Weather

Lat: 41.88N, Lon: 88.07W
Wx Zone: ILZ013
Feedback

Hawthorne School, IL Regional Weather

Expires:201903240800;;832375
ASUS43 KLOT 240708
RWRIL 

ILLINOIS REGIONAL WEATHER ROUNDUP
NATIONAL WEATHER SERVICE CHICAGO/ROMEOVILLE IL
200 AM CDT SUN MAR 24 2019

NOTE: "FAIR" INDICATES FEW OR NO CLOUDS BELOW 12,000 FEET WITH NO
SIGNIFICANT WEATHER AND/OR OBSTRUCTIONS TO VISIBILITY.

* THESE STATIONS ARE NOT UNDER NWS QUALITY CONTROL. THEY ALSO MAY NOT
  REPORT WEATHER SUCH AS PRECIPITATION OR FOG.


ILZ005-006-012>014-019>023-240800-
NORTHEAST ILLINOIS
  
CITY           SKY/WX    TMP DP  RH WIND       PRES   REMARKS
CHICAGO-OHARE  CLOUDY    43  26  51 S6        30.17F                  
CHICAGO-MIDWAY MOCLDY    44  24  45 S6        30.18F                  
AURORA         FAIR      41  31  67 SE6       30.17F                  
LANSING*       FAIR      40  27  61 CALM      30.20S                  
JOLIET*        FAIR      43  29  56 SE3       30.18F                  
WAUKEGAN       FAIR      37  26  64 CALM      30.17F                  
DUPAGE AIRPORT FAIR      42  29  59 S6        30.16F                  
KANKAKEE*      CLOUDY    38  32  77 CALM      30.20S                  
WHEELING       FAIR      42  27  55 CALM      30.19F                  
MORRIS*        FAIR      41  30  65 S5        30.18F                  
ROMEOVILLE*    FAIR      40  29  64 S6        30.18F                  
$$


SKY/WX - Weather  TMP - Temperature  DP - Dew Point  RH - Relative Humidity
WIND - Wind Direction/Speed PRES - Barometric Pressure VSB - Visibility
WCI - Wind Chill Index E13G22 Wind - East Wind 13 mph/Gusts of 22 mph